COSMOS 1275 DEB, 42197

Orbit data source: Space-Track

COSMOS 1275 DEB, 42197 is space debris in LEO originally from a launch on Thu, 04 Jun 1981 UTC launched from the Plesetsk Missile And Space Complex (PKMTR). Debris objects in space refer to the collection of defunct objects orbiting the Earth. Examples of debris include non-operational satellites, rocket bodies, and fragments generated from explosions, collisions, or faulty payload assembly.

Loading next visibility...
COSMOS 1275 DEB details
Identifier
42197, 1981-053TM
Orbit
LEO
Last TLE update2 days ago
Origin
Flag of CISGUKOS (CIS)
ManufacturerUnknown
MissionSpacecraft
Bus & MotorUnknown
MassUnknown
Launch date (UTC)
1981-06-04 (44 years ago)
Launch vehicleUnknown
Launch site
Plesetsk Missile And Space Complex (PKMTR)
Object type
Payload
Rocket body
Debris
Shape & HBRUnknown
Radar Cross SectionSmall (<0.1 m²)

Expand to show TLE details & history

TLE from 2 days ago
0 COSMOS 1275 DEB
1 42197U 81053TM  24359.88202067  .00001715  00000-0  18506-2 0  9992
2 42197  82.8476  60.7185 0113936 300.7632  58.2340 13.70057894553381
Epoch: 2024-12-24T21:10Z
Definitive object data (Epoch: 2024-12-24T21:10:06.585Z)
Latitude-0.00013°
Longitude9.3073°
Altitude958.692 km
Speed7.394 km/s
True Right ascension04h 02m 52s
True Declination0° 00' 00"
Sunlit
Object was in full shadow at TLE epoch
Visualization TLE readout
Latitude-25.87977°
Longitude4.48003°
Altitude942.723 km
Speed7.412 km/s
Apparent Right ascension03h 56m 30s
Apparent Declination-32° 18' 25"
Sunlit
Object is in daylight
Visualization observer readout
Local Sidereal Time16:13:56
Azimuth26.142° NE
Elevation-81.619°
Doppler factor1
Orbital elements
Apogee altitude1,080.546 km
Perigee altitude912.498 km
Semi-major axis7,374.659 km
Eccentricity0.0113936
Inclination82.8476°
RAAN60.7185°
Arg. of periapsis300.7632°
True anomaly59.35235°
Mean anomaly58.234°
Eccentric anomaly58.79234°
Mean motion3.42713 °/min
BSTAR0.0018506
Orbital period105.04 mins
Loading maneuver chart data...
Loading historical data...
Loading historical data...
Loading historical data...
Loading historical data...
Loading historical data...
Loading historical data...
Loading historical data...

COSMOS 1275 DEB Visibility forecast

Observer location: undefined°, undefined

Span
Click to sort rows by Start time (UTC) header in descending order
Start Az.
Max El. time (UTC)
Max El. Az.
Max El.
End time (UTC)
End Az.
7 mins2024-12-26 17:36:42.364Z314.36° NW2024-12-26 17:40:42.364Z274.489° WNW17.774°2024-12-26 17:43:42.364Z244.751° WSW
8 mins2024-12-27 03:38:42.364Z121.567° SE2024-12-27 03:41:42.364Z86.373° E21.817°2024-12-27 03:46:42.364Z34.68° NE
11 mins2024-12-27 05:22:42.364Z211.073° SW2024-12-27 05:27:42.364Z293.891° NW37.994°2024-12-27 05:33:42.364Z357.638° N
8 mins2024-12-27 14:37:42.364Z30.612° NE2024-12-27 14:41:42.364Z74.384° E20.705°2024-12-27 14:45:42.364Z114.518° SE
11 mins2024-12-27 16:22:42.364Z342.282° N2024-12-27 16:27:42.364Z267.381° W41.239°2024-12-27 16:33:42.364Z190.449° SSW
|